Wind_Speed
41 39 34 32 29 32 30 28 28 26 26 27 30 29 26 25 27 27 29 31 32 34 31 31 34 36 40 42 43 45 45 43 40 38 40 42 44 46 47 51 54 56 58
41 42 35 33 31 33 33 29 28 28 26 28 31 31 29 29 29 30 31 32 33 32 30 32 35 39 41 42 44 46 44 39 40 42 42 43 45 48 52 54 57 60 62
43 43 37 35 32 32 34 33 30 27 27 27 28 30 32 32 32 33 34 33 34 32 33 35 38 41 42 44 45 42 40 43 45 45 46 48 49 51 51 56 61 64 66
43 42 41 35 33 32 30 32 32 29 27 29 28 29 30 32 33 34 34 36 35 35 37 39 41 42 44 45 43 43 44 46 47 50 53 56 59 60 60 58 62 64 66
41 41 39 36 35 33 31 31 32 30 27 28 29 30 31 33 35 36 36 37 37 39 40 41 43 44 46 44 44 45 46 48 51 54 56 59 64 68 68 66 67 65 62
40 41 40 38 34 34 32 30 30 28 26 28 30 30 32 35 35 36 38 39 41 41 40 43 44 44 43 44 46 48 50 52 55 58 62 66 68 70 72 73 73 73 68
41 39 39 36 35 34 33 32 31 29 28 29 30 30 32 33 35 38 40 41 42 41 43 44 43 43 45 46 47 50 53 56 59 64 66 71 73 75 75 74 73 73 74
40 41 38 36 37 34 34 33 32 29 30 30 31 31 33 34 37 40 41 41 41 43 44 43 43 45 46 48 51 54 57 59 64 67 71 74 75 73 72 74 77 79 79
39 41 37 35 36 33 34 33 32 30 29 30 32 33 35 37 39 40 39 41 42 42 42 43 45 47 48 51 54 57 60 64 68 71 74 74 70 69 71 77 83 88 89
39 35 37 34 32 33 34 32 30 30 30 31 33 34 36 37 37 37 40 42 41 41 43 46 47 49 51 54 57 60 63 67 71 75 73 69 69 71 77 82 88 93 99
35 37 37 34 33 33 30 30 30 28 30 31 31 32 35 36 37 39 40 39 41 43 45 48 49 51 54 57 59 62 67 70 75 72 69 69 73 77 83 88 94 101 109
41 39 35 32 31 30 31 29 28 28 28 28 31 34 35 36 37 37 38 40 42 45 47 49 51 54 57 57 62 67 71 74 69 68 70 73 78 84 90 96 101 109 116
36 35 34 31 29 28 27 27 26 27 28 30 32 34 35 35 35 37 39 41 44 47 49 51 54 55 56 61 67 71 72 68 69 71 74 79 85 91 97 104 110 117 122
27 28 29 25 25 25 25 26 26 27 29 31 32 33 33 34 36 38 40 43 46 49 52 53 53 56 61 66 70 70 67 69 72 75 80 86 92 99 106 111 118 122 118
26 25 23 22 22 22 22 23 24 26 27 29 31 31 33 34 37 40 43 46 49 52 52 53 58 60 66 68 69 67 68 71 75 80 86 93 100 105 112 118 119 109 96
22 21 19 19 19 19 21 22 23 25 27 28 30 31 33 36 39 42 46 49 51 51 53 57 61 65 67 66 66 67 69 74 80 86 93 99 105 111 116 113 101 90 83
18 18 18 17 18 19 20 21 22 24 26 28 30 33 36 39 42 45 48 48 49 54 56 61 63 67 63 64 65 68 74 81 88 95 101 104 110 114 110 93 85 74 62
16 16 15 16 16 17 18 20 23 25 27 30 32 35 38 41 43 44 46 51 52 56 60 63 65 61 63 64 69 74 81 89 95 100 104 109 112 104 89 82 70 57 55
18 18 18 17 17 19 20 22 24 27 30 31 34 36 39 41 44 48 49 52 56 59 62 61 60 61 64 69 75 81 88 93 98 102 108 110 101 85 79 68 54 49 43
19 19 18 19 20 22 23 24 27 29 30 32 35 39 41 44 46 48 51 54 57 60 56 58 61 63 68 75 81 86 93 96 99 104 105 91 82 75 64 53 46 39 32
15 17 20 22 23 22 24 26 27 29 32 36 38 41 43 44 47 50 52 56 56 55 57 58 62 69 75 81 84 92 96 99 103 102 86 77 69 60 49 45 36 33 36
21 23 22 20 20 22 23 26 29 31 33 37 39 40 43 46 48 51 54 52 53 55 56 59 66 74 80 85 89 95 99 103 101 83 75 66 56 45 42 32 33 33 28
17 17 17 18 20 23 26 27 30 32 35 37 39 41 43 47 50 50 50 51 53 55 59 65 72 76 82 88 93 98 100 97 81 74 66 54 43 40 31 34 33 26 25
16 17 19 22 24 24 26 29 32 34 36 37 39 41 46 47 47 47 48 51 54 58 65 70 75 80 86 91 97 99 98 82 73 65 51 42 39 30 36 33 24 26 26
18 18 18 21 23 26 28 30 32 33 35 37 41 44 44 45 45 47 50 54 59 64 69 74 79 85 90 95 99 98 81 71 63 51 40 36 29 34 31 27 28 28 27
15 17 20 23 25 28 30 30 31 33 37 40 41 41 42 42 45 49 54 58 63 69 74 80 85 89 93 97 95 78 69 62 51 38 34 27 31 25 26 27 29 31 31
Wind_Direction
242 236 239 246 249 240 244 249 251 253 253 248 247 247 252 260 262 266 274 277 283 290 287 282 283 286 288 293 295 294 294 294 295 295 293 291 291 292 294 295 295 295 296
241 237 236 241 243 240 242 247 250 251 255 253 251 251 255 261 264 270 275 279 288 287 285 286 288 290 294 296 296 296 298 298 296 295 293 292 294 296 297 297 298 298 297
237 236 234 238 240 240 240 244 251 251 254 259 258 256 256 261 267 271 276 281 286 287 289 292 293 294 295 295 296 297 296 297 297 296 296 294 293 293 293 295 296 296 295
241 236 230 237 236 237 240 242 248 252 257 256 257 257 258 261 266 272 276 281 286 289 290 292 293 294 295 296 296 296 297 298 299 300 301 300 300 298 296 295 295 295 294
237 236 227 234 232 236 241 244 247 251 257 257 258 258 260 264 267 271 275 281 285 288 291 292 293 295 296 296 297 298 299 299 300 300 299 299 300 300 300 299 298 298 296
230 231 227 231 231 235 240 243 244 248 254 257 258 258 261 264 267 271 276 281 285 289 291 293 294 295 296 297 299 299 300 301 300 299 299 299 300 300 301 300 300 299 297
224 223 223 226 230 234 238 240 244 247 252 258 258 260 261 265 269 273 278 282 286 289 292 293 294 296 297 298 299 300 300 299 299 300 300 301 303 304 303 302 300 299 299
221 222 219 221 227 230 237 241 245 248 252 259 260 261 263 266 271 275 280 284 288 290 291 294 295 296 298 300 299 298 297 297 299 300 302 304 305 304 304 303 302 301 301
218 218 213 223 226 231 237 240 244 248 253 257 259 261 265 268 272 278 282 285 287 290 292 294 296 297 298 298 297 296 297 299 300 302 305 305 304 305 304 303 302 302 302
213 215 214 220 222 230 236 238 243 248 254 258 260 262 267 270 276 281 282 285 288 291 292 295 297 297 298 297 297 297 299 300 303 305 305 304 304 304 304 304 304 305 306
209 213 220 222 222 230 234 235 240 248 253 257 262 266 269 275 279 281 285 287 290 291 295 297 298 298 297 298 299 300 300 304 305 305 304 304 304 305 305 305 307 309 309
204 210 219 221 220 224 229 234 242 248 253 258 264 268 273 277 280 284 285 288 291 295 296 298 299 298 298 300 301 302 304 305 305 304 304 305 306 307 309 310 311 312 311
208 210 218 216 215 221 227 236 242 248 256 261 266 270 275 279 282 284 288 292 295 296 299 299 299 300 302 302 304 305 306 305 304 304 305 307 308 310 312 313 313 312 312
200 205 209 209 213 220 228 237 245 253 258 263 268 273 277 280 285 290 293 294 297 298 299 300 300 302 303 304 306 307 305 305 306 308 308 309 312 314 314 313 313 313 311
197 202 203 208 216 226 237 245 250 255 260 264 269 275 281 287 290 292 294 296 297 299 300 301 302 304 305 306 306 305 305 308 310 311 313 315 315 315 315 315 315 312 310
192 202 209 217 226 232 238 246 252 258 263 271 277 282 287 290 292 294 295 297 298 301 300 302 305 305 305 306 304 306 310 313 314 314 316 316 315 315 315 315 313 313 313
192 200 208 218 228 237 245 253 261 268 272 276 282 286 289 292 294 296 299 300 299 301 304 305 305 305 305 305 308 312 314 315 315 316 315 315 316 317 316 313 314 314 313
206 213 220 229 237 247 255 261 266 271 276 280 284 288 291 294 296 298 299 300 303 304 304 304 305 305 306 310 313 314 314 316 317 316 316 316 318 316 314 315 317 316 316
226 229 233 244 249 251 258 266 271 275 278 282 286 289 290 293 294 296 300 302 303 303 303 305 305 308 311 314 314 316 318 319 318 317 317 318 317 316 316 317 319 318 319
232 238 243 246 251 259 265 270 273 276 281 285 287 290 292 295 297 300 301 302 301 304 305 307 310 312 315 316 317 321 322 319 317 317 319 317 318 318 318 320 321 322 320
243 245 248 251 258 264 267 271 276 279 282 286 290 292 294 297 299 300 301 302 305 306 308 311 314 317 317 318 319 321 319 318 319 320 319 319 319 318 319 321 324 322 321
246 249 253 255 259 265 270 276 279 282 287 289 291 293 297 298 300 302 303 305 306 309 311 313 316 317 318 319 320 319 319 320 322 321 321 321 320 319 322 323 324 324 325
246 248 251 256 265 272 276 277 283 286 288 291 294 297 299 301 302 304 306 308 310 311 313 315 317 318 319 320 320 320 321 323 322 323 322 322 321 323 322 323 324 324 322
245 253 261 268 273 277 280 284 286 288 292 296 299 300 301 303 305 307 308 309 311 313 316 318 318 318 319 321 322 322 324 323 323 323 322 323 323 323 323 324 324 325 324
259 262 268 274 279 283 285 288 291 295 297 299 301 302 304 306 308 310 311 313 315 317 317 318 319 321 321 321 322 325 325 324 324 324 324 324 326 324 323 325 327 327 325
267 276 281 284 287 289 291 293 295 297 300 302 303 305 307 309 311 312 314 317 317 317 317 320 321 321 321 323 326 325 325 324 324 326 327 327 326 325 324 325 323 321 323
Height
5738 5742 5746 5749 5751 5752 5754 5757 5758 5759 5762 5763 5764 5766 5767 5767 5767 5768 5767 5766 5764 5761 5758 5756 5755 5752 5749 5745 5741 5738 5734 5731 5728 5725 5721 5717 5714 5710 5706 5701 5697 5692 5688
5730 5734 5739 5742 5744 5746 5748 5751 5752 5754 5755 5757 5757 5759 5760 5761 5761 5761 5761 5759 5756 5753 5750 5748 5746 5743 5740 5736 5732 5729 5724 5721 5718 5715 5712 5710 5705 5699 5694 5689 5685 5679 5674
5722 5726 5732 5734 5738 5740 5741 5744 5746 5747 5749 5751 5751 5752 5753 5754 5755 5755 5754 5751 5748 5745 5742 5740 5737 5734 5730 5726 5723 5719 5716 5711 5707 5703 5700 5696 5695 5692 5689 5682 5674 5668 5661
5716 5719 5724 5728 5730 5733 5735 5737 5739 5741 5742 5744 5745 5746 5747 5748 5748 5747 5746 5743 5740 5737 5735 5731 5728 5725 5721 5716 5713 5710 5706 5701 5697 5691 5685 5680 5675 5671 5672 5672 5663 5655 5648
5707 5713 5717 5720 5723 5726 5728 5730 5732 5734 5736 5737 5739 5740 5740 5741 5740 5739 5738 5735 5732 5729 5726 5723 5719 5715 5711 5707 5704 5699 5695 5690 5685 5679 5674 5668 5661 5653 5647 5647 5645 5639 5631
5697 5704 5709 5712 5717 5719 5722 5723 5725 5727 5729 5731 5733 5733 5733 5734 5733 5732 5730 5727 5724 5721 5717 5714 5710 5706 5702 5698 5694 5689 5684 5678 5672 5666 5659 5652 5646 5640 5631 5626 5621 5616 5615
5687 5695 5701 5707 5710 5713 5715 5716 5718 5721 5723 5725 5725 5726 5726 5726 5725 5724 5721 5719 5716 5712 5709 5705 5701 5697 5693 5689 5684 5679 5673 5666 5659 5652 5645 5636 5628 5620 5612 5605 5601 5595 5592
5680 5688 5694 5699 5702 5704 5708 5709 5712 5714 5716 5717 5718 5718 5718 5718 5717 5715 5714 5711 5707 5704 5700 5696 5692 5688 5684 5679 5673 5668 5661 5654 5646 5638 5630 5621 5612 5603 5593 5584 5576 5573 5569
5673 5680 5687 5692 5695 5698 5701 5703 5706 5707 5709 5710 5711 5710 5711 5710 5708 5707 5705 5702 5699 5695 5691 5688 5684 5679 5674 5669 5662 5656 5648 5641 5633 5624 5615 5606 5597 5588 5578 5566 5554 5543 5539
5666 5674 5680 5685 5688 5691 5694 5697 5699 5701 5702 5703 5703 5703 5703 5702 5700 5700 5697 5694 5690 5687 5683 5678 5674 5669 5663 5657 5650 5643 5635 5627 5618 5609 5600 5590 5582 5573 5562 5549 5536 5521 5507
5661 5668 5674 5678 5680 5684 5688 5691 5693 5695 5696 5696 5697 5697 5696 5695 5694 5691 5688 5685 5682 5677 5673 5669 5664 5658 5652 5645 5638 5630 5622 5613 5603 5593 5584 5575 5565 5555 5543 5530 5515 5499 5478
5653 5660 5667 5671 5673 5678 5682 5684 5686 5688 5689 5690 5690 5690 5689 5687 5686 5682 5680 5676 5672 5668 5663 5658 5653 5646 5639 5632 5625 5617 5607 5597 5588 5578 5568 5558 5547 5536 5522 5507 5491 5473 5454
5649 5655 5661 5664 5667 5672 5675 5678 5680 5681 5682 5683 5683 5682 5681 5679 5677 5674 5671 5667 5662 5657 5652 5647 5641 5634 5627 5619 5611 5602 5592 5582 5572 5562 5552 5540 5527 5514 5499 5483 5465 5446 5426
5644 5650 5656 5659 5662 5666 5669 5672 5674 5675 5676 5676 5676 5675 5673 5671 5668 5665 5661 5657 5652 5647 5641 5635 5628 5622 5614 5605 5596 5587 5576 5566 5555 5545 5533 5520 5505 5489 5473 5456 5436 5415 5394
5642 5647 5650 5654 5657 5661 5664 5666 5668 5669 5669 5669 5669 5667 5665 5662 5660 5656 5651 5647 5641 5635 5630 5624 5616 5609 5601 5592 5583 5573 5563 5552 5541 5528 5514 5498 5482 5464 5445 5423 5405 5383 5364
5639 5643 5647 5650 5653 5656 5659 5661 5662 5662 5662 5662 5661 5659 5657 5654 5651 5646 5641 5636 5630 5625 5619 5612 5605 5597 5588 5578 5568 5559 5549 5536 5523 5510 5495 5478 5460 5442 5422 5401 5378 5359 5339
5636 5640 5643 5646 5649 5652 5654 5655 5656 5656 5656 5655 5653 5651 5649 5645 5641 5636 5631 5626 5620 5614 5607 5600 5592 5583 5574 5565 5555 5545 5533 5519 5503 5488 5472 5456 5436 5415 5396 5378 5361 5345 5330
5635 5638 5641 5644 5646 5647 5649 5649 5650 5650 5649 5648 5646 5643 5640 5636 5631 5627 5622 5616 5609 5603 5595 5587 5579 5570 5560 5551 5541 5530 5517 5501 5484 5466 5447 5429 5411 5391 5370 5357 5345 5332 5319
5632 5635 5638 5640 5641 5643 5644 5644 5644 5644 5643 5641 5638 5635 5631 5627 5622 5617 5612 5605 5598 5591 5583 5574 5566 5557 5547 5537 5526 5513 5499 5485 5468 5447 5426 5406 5386 5368 5353 5341 5331 5321 5312
5630 5632 5634 5635 5637 5637 5638 5638 5638 5637 5635 5632 5629 5626 5622 5617 5612 5607 5601 5594 5587 5579 5570 5561 5553 5544 5534 5521 5508 5494 5480 5466 5451 5430 5406 5385 5366 5351 5338 5328 5320 5313 5306
5627 5628 5630 5631 5631 5632 5632 5631 5631 5629 5627 5624 5621 5617 5612 5608 5603 5597 5590 5583 5575 5567 5560 5551 5540 5529 5517 5503 5489 5475 5458 5442 5426 5405 5385 5368 5352 5339 5329 5321 5313 5307 5301
5622 5623 5625 5625 5625 5626 5626 5625 5624 5621 5618 5615 5612 5608 5603 5598 5592 5585 5579 5572 5565 5557 5549 5539 5528 5514 5499 5485 5472 5455 5437 5419 5400 5382 5366 5353 5341 5331 5322 5315 5309 5302 5295
5618 5619 5620 5620 5620 5620 5619 5617 5616 5613 5610 5606 5603 5598 5593 5588 5581 5575 5568 5561 5553 5545 5536 5526 5514 5501 5486 5471 5454 5437 5418 5399 5380 5364 5349 5339 5330 5323 5316 5310 5304 5298 5292
5613 5614 5614 5614 5613 5613 5611 5609 5607 5604 5601 5597 5593 5588 5583 5577 5571 5565 5558 5551 5543 5533 5523 5511 5500 5486 5470 5454 5437 5419 5399 5381 5366 5352 5340 5331 5323 5316 5311 5305 5299 5293 5288
5608 5608 5608 5608 5607 5605 5603 5601 5599 5595 5592 5588 5584 5578 5573 5567 5561 5555 5547 5539 5529 5519 5509 5496 5483 5469 5453 5436 5416 5397 5380 5366 5353 5342 5333 5325 5319 5313 5306 5300 5295 5290 5284
5603 5603 5602 5601 5599 5598 5596 5593 5590 5587 5583 5579 5574 5569 5564 5558 5551 5544 5534 5525 5516 5504 5491 5477 5463 5449 5431 5414 5397 5380 5366 5353 5343 5335 5328 5321 5315 5309 5304 5298 5292 5286 5280